Location: Neuvy Saint Sepulchre
(46.5953°N, 1.8122°E)
Time: 08:27:15
(UTC+01:00)

ISS - Pass Details

Date: 03 December 2019
Orbit: 411 x 421 km, 51.6° (Epoch: 15 December)

Event Time Altitude Azimuth Distance (km) Brightness Sun altitude
Rises 19:11:23 0° 294° (WNW) 2,361 1.0 -20.7°
Reaches altitude 10° 19:13:33 10° 301° (WNW) 1,499 -0.3 -21.1°
Enters shadow 19:15:56 35° 334° (NNW) 702 -2.6 -21.5°
